STARLINK-35165

Last updated on Mon Oct 20 2025 00:02:06 GMT+0000 (Coordinated Universal Time)

1 65750U 25216S 25292.23351663 .00109398 00000+0 19443-2 0 9990 2 65750 53.1587 272.2345 0001221 96.7105 263.4043 15.49357548 4820
UTC large
Height (km)
Speed (km/s)
/
Latitude / Longitude
Inclination (degrees)
Orbital Period (minutes)
Azimuth
Elevation
Range (km)
Doppler Factor

Next 0 passes for location: London (51.5072 / 0.1276)

Sorry there are no passes over London.